This is the latest recevied weather packets stored in our database for station/object EB1GOD-1. If no packets are shown the sender has not sent any weather packets the latest 10 day(s).
| Time | Temp. | Humidity | Pressure | Rain* | Wind** | Luminosity | Snow |
|---|---|---|---|---|---|---|---|
| 1777941196 | 10.56° C | 77% | 1153.8 hPa | - | - | - | - |
| 1777940296 | 10.56° C | 75% | 1153.9 hPa | - | - | - | - |
| 1777939396 | 10.56° C | 74% | 1153.9 hPa | - | - | - | - |
| 1777938496 | 10.56° C | 73% | 1153.9 hPa | - | - | - | - |
| 1777937596 | 10.56° C | 74% | 1154 hPa | - | - | - | - |
| 1777936696 | 10.56° C | 75% | 1154 hPa | - | - | - | - |
| 1777935795 | 10.56° C | 75% | 1154 hPa | - | - | - | - |
| 1777934896 | 10.56° C | 78% | 1154.1 hPa | - | - | - | - |
| 1777933995 | 10.56° C | 74% | 1154.2 hPa | - | - | - | - |
| 1777933095 | 11.11° C | 72% | 1154.2 hPa | - | - | - | - |
| 1777932195 | 11.11° C | 78% | 1154.1 hPa | - | - | - | - |
| 1777931295 | 11.67° C | 76% | 1154.3 hPa | - | - | - | - |
| 1777930395 | 12.22° C | 79% | 1154.4 hPa | - | - | - | - |
| 1777929495 | 12.22° C | 76% | 1154.3 hPa | - | - | - | - |
| 1777928595 | 12.22° C | 77% | 1154.3 hPa | - | - | - | - |
| 1777927695 | 12.22° C | 75% | 1154.2 hPa | - | - | - | - |
| 1777926797 | 11.67° C | 74% | 1154 hPa | - | - | - | - |
| 1777925895 | 12.22° C | 75% | 1153.9 hPa | - | - | - | - |
| 1777924994 | 11.67° C | 75% | 1153.6 hPa | - | - | - | - |
| 1777924095 | 11.67° C | 74% | 1153.5 hPa | - | - | - | - |
| 1777923195 | 12.22° C | 77% | 1153.5 hPa | - | - | - | - |
| 1777922294 | 12.78° C | 73% | 1153.3 hPa | - | - | - | - |
| 1777921394 | 12.22° C | 76% | 1153.4 hPa | - | - | - | - |
| 1777920495 | 12.22° C | 74% | 1153.2 hPa | - | - | - | - |
| 1777919594 | 12.22° C | 75% | 1153.1 hPa | - | - | - | - |
* Rain since midnight (hover to see other rain measurements)
** Current wind speed in m/s (hover to see current wind gust speed)